Location: Finkenwalde
(53.3770°N, 14.6418°E)
Time: 10:04:16
(UTC+00:00)

Lacrosse 5 - Pass Details

Date: 05 February 2023
Orbit: 714 x 724 km, 57.0° (Epoch: 09 March)

Event Time Altitude Azimuth Distance (km) Brightness Sun altitude
Rises 20:08:14 0° 279° (W) 3,142 6.0 -37.7°
Reaches altitude 10° 20:10:39 10° 283° (WNW) 2,221 5.1 -38.0°
Enters shadow 20:12:17 20° 289° (WNW) 1,633 4.2 -38.2°
